sat.trackr.live / text

‹ back to catalog

SUOMI NPP

NORAD 37849 · 2011-061A

PAYLOAD ACTIVE UNKNOWN

§ Identity

Operator
Country
US
Launch date
2011-10-28
Launch site
AFWTR
Launch vehicle
Mass (kg)
RCS (m²)
5.78

Purposes: earth_obs

External: N2YO · Heavens-Above · Gunter

§ Orbital elements

Epoch: 2026-09-20T03:26:59.865216Z

Period
101.44 min
Inclination
98.8011°
Eccentricity
0.0002752
Mean motion
14.19534075 rev/d
Perigee alt
824.9 km
Apogee alt
828.9 km
Semi-major
7,205.1 km
B*
4.5659e-5
RAAN
203.3913°
Arg perigee
65.2893°
Mean anomaly
294.8569°
Rev number
77,191

§ Raw data

SUOMI NPP1 37849U 11061A   26263.14374844  .00000052  00000+0  45659-4 0  99932 37849  98.8011 203.3913 0002752  65.2893 294.8569 14.19534075771917

JSON: /api/v1/satellites/37849 · /tle

For live sub-satellite position, see the globe view (requires WebGL).

§ Visibility from observer

Set your observer location to see the next 7 days of passes ≥ 10°. The values pass through the URL so the page stays shareable.

No JS? Fill the form by hand. The geolocation button needs JavaScript.

§ Radio — SatNOGS DB

ModeDescriptionDownlinkUplink
FM Ku-band dumps to TDRS 15.003 GHz
BPSK S-band telemetry 2.248 GHz
FM X-band downlink 7.812 GHz
FM X-band dumps 8.213 GHz

4 transmitters · refreshed weekly from db.satnogs.org